• In India
  • List of Countries
  • For 7 days
  • Water Temperature
  • Satellite Maps
  • Weather Map
  • Weather Widgets
  • user-avatar
    Login

    Hourly Weather Karpiowka

    Today, 24 September, Monday

    Time Temperature Precipitation Wind Pressure Humidity
    00:00 +14°C° 1.6 mm 6 mps 728 mmHg 77%
    01:00 +13°C° 1.6 mm 5 mps 727 mmHg 85%
    02:00 +12°C° 1.6 mm 7 mps 727 mmHg 84%
    03:00 +12°C° 1.6 mm 9 mps 728 mmHg 84%
    04:00 +12°C° 1.6 mm 11 mps 729 mmHg 84%
    05:00 +9°C° 0.1 mm 10 mps 730 mmHg 82%
    06:00 +8°C° 0.1 mm 9 mps 732 mmHg 81%
    07:00 +7°C° 0.1 mm 8 mps 734 mmHg 79%
    08:00 +7°C° 0.1 mm 9 mps 735 mmHg 77%
    09:00 +8°C° 0.1 mm 9 mps 736 mmHg 74%
    10:00 +10°C° 0.1 mm 9 mps 737 mmHg 71%
    11:00 +10°C° 0.3 mm 9 mps 737 mmHg 70%
    12:00 +10°C° 0.3 mm 9 mps 738 mmHg 69%
    13:00 +8°C° 0.3 mm 10 mps 738 mmHg 67%
    14:00 +8°C° 0.1 mm 9 mps 739 mmHg 65%
    15:00 +8°C° 0.1 mm 9 mps 739 mmHg 63%
    16:00 +8°C° 0.1 mm 9 mps 739 mmHg 60%
    17:00 +9°C° 0 mm 8 mps 740 mmHg 63%
    18:00 +8°C° 0 mm 7 mps 740 mmHg 65%
    19:00 +7°C° 0 mm 6 mps 740 mmHg 67%
    20:00 +7°C° 0.1 mm 6 mps 741 mmHg 70%
    21:00 +7°C° 0.1 mm 6 mps 741 mmHg 73%
    22:00 +5°C° 0.1 mm 6 mps 741 mmHg 76%
    23:00 +5°C° 0.2 mm 6 mps 742 mmHg 78%

    Tomorrow, 25 September, Tuesday

    Time Temperature Precipitation Wind Pressure Humidity
    00:00 +5°C° 0.2 mm 6 mps 743 mmHg 80%
    01:00 +5°C° 0.2 mm 6 mps 743 mmHg 82%
    02:00 +4°C° 0 mm 6 mps 744 mmHg 83%
    03:00 +5°C° 0 mm 5 mps 745 mmHg 83%
    04:00 +3°C° 0 mm 5 mps 745 mmHg 84%
    05:00 +5°C° 0 mm 5 mps 746 mmHg 82%
    06:00 +4°C° 0 mm 6 mps 747 mmHg 79%
    07:00 +4°C° 0 mm 6 mps 747 mmHg 77%
    08:00 +7°C° 0 mm 6 mps 748 mmHg 69%
    09:00 +8°C° 0 mm 7 mps 748 mmHg 60%
    10:00 +9°C° 0 mm 7 mps 749 mmHg 52%
    11:00 +10°C° 0.1 mm 7 mps 749 mmHg 51%
    12:00 +10°C° 0.1 mm 7 mps 749 mmHg 49%
    13:00 +10°C° 0.1 mm 7 mps 749 mmHg 48%
    14:00 +10°C° 0.1 mm 7 mps 750 mmHg 49%
    15:00 +9°C° 0.1 mm 7 mps 750 mmHg 50%
    16:00 +9°C° 0.1 mm 6 mps 750 mmHg 51%
    17:00 +8°C° 0 mm 5 mps 751 mmHg 54%
    18:00 +7°C° 0 mm 4 mps 751 mmHg 57%
    19:00 +7°C° 0 mm 3 mps 752 mmHg 59%
    20:00 +5°C° 0 mm 3 mps 752 mmHg 63%
    21:00 +5°C° 0 mm 3 mps 752 mmHg 66%
    22:00 +4°C° 0 mm 3 mps 753 mmHg 70%
    23:00 +4°C° 0 mm 3 mps 753 mmHg 72%

    Day after tomorrow, 26 September, Wednesday

    Time Temperature Precipitation Wind Pressure Humidity
    00:00 +4°C° 0 mm 2 mps 753 mmHg 75%
    01:00 +4°C° 0 mm 2 mps 754 mmHg 77%
    02:00 +3°C° 0 mm 2 mps 754 mmHg 78%
    03:00 +3°C° 0 mm 2 mps 754 mmHg 79%
    04:00 +3°C° 0 mm 2 mps 754 mmHg 80%
    05:00 +4°C° 0 mm 2 mps 754 mmHg 77%
    06:00 +4°C° 0 mm 2 mps 754 mmHg 74%
    07:00 +5°C° 0 mm 2 mps 754 mmHg 71%
    08:00 +7°C° 0 mm 2 mps 754 mmHg 63%
    09:00 +9°C° 0 mm 3 mps 754 mmHg 55%
    10:00 +11°C° 0 mm 3 mps 753 mmHg 47%
    11:00 +11°C° 0 mm 4 mps 753 mmHg 45%
    12:00 +12°C° 0 mm 4 mps 752 mmHg 44%
    13:00 +13°C° 0 mm 4 mps 752 mmHg 43%
    14:00 +13°C° 0 mm 4 mps 751 mmHg 45%
    15:00 +13°C° 0 mm 4 mps 751 mmHg 47%
    16:00 +12°C° 0 mm 3 mps 750 mmHg 50%
    17:00 +12°C° 0 mm 3 mps 750 mmHg 52%
    18:00 +11°C° 0 mm 4 mps 749 mmHg 54%
    19:00 +10°C° 0 mm 4 mps 749 mmHg 56%
    20:00 +10°C° 0 mm 4 mps 749 mmHg 55%
    21:00 +10°C° 0 mm 4 mps 749 mmHg 54%
    22:00 +10°C° 0 mm 5 mps 748 mmHg 53%
    23:00 +10°C° 0 mm 5 mps 748 mmHg 53%

    27 September, Thursday

    Time Temperature Precipitation Wind Pressure Humidity
    00:00 +10°C° 0 mm 5 mps 748 mmHg 53%
    01:00 +10°C° 0 mm 5 mps 747 mmHg 53%
    02:00 +10°C° 0 mm 5 mps 747 mmHg 51%
    03:00 +10°C° 0 mm 6 mps 747 mmHg 49%
    04:00 +10°C° 0 mm 6 mps 746 mmHg 47%
    05:00 +10°C° 0 mm 6 mps 746 mmHg 48%
    06:00 +10°C° 0 mm 6 mps 746 mmHg 49%
    07:00 +10°C° 0 mm 6 mps 746 mmHg 50%
    08:00 +13°C° 0 mm 6 mps 746 mmHg 50%
    09:00 +14°C° 0 mm 7 mps 746 mmHg 50%
    10:00 +15°C° 0 mm 7 mps 746 mmHg 50%
    11:00 +16°C° 0 mm 7 mps 746 mmHg 51%
    12:00 +18°C° 0 mm 7 mps 745 mmHg 51%
    13:00 +20°C° 0 mm 6 mps 745 mmHg 52%
    14:00 +20°C° 0 mm 6 mps 745 mmHg 55%
    15:00 +20°C° 0 mm 5 mps 744 mmHg 58%
    16:00 +19°C° 0 mm 4 mps 744 mmHg 61%
    17:00 +18°C° 0 mm 4 mps 744 mmHg 66%
    18:00 +16°C° 0 mm 3 mps 744 mmHg 72%
    19:00 +14°C° 0 mm 3 mps 744 mmHg 77%
    20:00 +14°C° 0 mm 3 mps 744 mmHg 78%
    21:00 +13°C° 0 mm 3 mps 743 mmHg 78%
    22:00 +13°C° 0 mm 3 mps 743 mmHg 78%
    23:00 +12°C° 0 mm 4 mps 743 mmHg 76%

    28 September, Friday

    Time Temperature Precipitation Wind Pressure Humidity
    00:00 +12°C° 0 mm 4 mps 743 mmHg 73%
    01:00 +12°C° 0 mm 4 mps 742 mmHg 71%
    02:00 +12°C° 0 mm 4 mps 742 mmHg 70%
    03:00 +12°C° 0 mm 4 mps 741 mmHg 68%
    04:00 +11°C° 0 mm 4 mps 741 mmHg 67%
    05:00 +12°C° 0 mm 4 mps 741 mmHg 66%
    06:00 +12°C° 0 mm 4 mps 741 mmHg 65%
    07:00 +13°C° 0 mm 4 mps 741 mmHg 64%
    08:00 +13°C° 0 mm 4 mps 741 mmHg 64%
    09:00 +14°C° 0 mm 4 mps 741 mmHg 64%
    10:00 +15°C° 0 mm 4 mps 742 mmHg 64%
    11:00 +15°C° 0 mm 4 mps 742 mmHg 66%
    12:00 +16°C° 0 mm 3 mps 742 mmHg 69%
    13:00 +16°C° 0 mm 3 mps 742 mmHg 71%
    14:00 +16°C° 0 mm 3 mps 742 mmHg 73%
    15:00 +14°C° 0 mm 3 mps 742 mmHg 75%
    16:00 +13°C° 0 mm 3 mps 742 mmHg 77%
    17:00 +13°C° 0 mm 3 mps 743 mmHg 76%
    18:00 +13°C° 0 mm 2 mps 743 mmHg 75%
    19:00 +13°C° 0 mm 2 mps 744 mmHg 74%
    20:00 +12°C° 0 mm 2 mps 744 mmHg 74%
    21:00 +12°C° 0 mm 2 mps 744 mmHg 74%
    22:00 +12°C° 0 mm 2 mps 745 mmHg 73%
    23:00 +10°C° 0 mm 2 mps 745 mmHg 74%

    29 September, Saturday

    Time Temperature Precipitation Wind Pressure Humidity
    00:00 +10°C° 0 mm 2 mps 745 mmHg 74%
    01:00 +9°C° 0 mm 2 mps 745 mmHg 75%
    02:00 +8°C° 0 mm 2 mps 746 mmHg 75%
    03:00 +8°C° 0 mm 3 mps 746 mmHg 76%
    04:00 +7°C° 0 mm 3 mps 746 mmHg 76%
    05:00 +7°C° 0 mm 3 mps 747 mmHg 75%
    06:00 +8°C° 0 mm 3 mps 747 mmHg 74%
    07:00 +8°C° 0 mm 3 mps 748 mmHg 72%
    08:00 +9°C° 0 mm 3 mps 748 mmHg 65%
    09:00 +11°C° 0 mm 3 mps 748 mmHg 58%
    10:00 +12°C° 0 mm 3 mps 749 mmHg 51%
    11:00 +13°C° 0 mm 3 mps 749 mmHg 47%
    12:00 +14°C° 0 mm 3 mps 749 mmHg 43%
    13:00 +14°C° 0 mm 3 mps 748 mmHg 38%
    14:00 +14°C° 0 mm 3 mps 748 mmHg 41%
    15:00 +13°C° 0 mm 3 mps 748 mmHg 43%
    16:00 +13°C° 0 mm 3 mps 748 mmHg 45%
    17:00 +11°C° 0 mm 3 mps 748 mmHg 49%
    18:00 +10°C° 0 mm 3 mps 749 mmHg 54%
    19:00 +8°C° 0 mm 3 mps 749 mmHg 59%
    20:00 +8°C° 0 mm 3 mps 749 mmHg 61%
    21:00 +7°C° 0 mm 3 mps 749 mmHg 64%
    22:00 +7°C° 0 mm 3 mps 749 mmHg 66%
    23:00 +7°C° 0 mm 3 mps 748 mmHg 68%
    Show more